Presure
256 383 410 425 437 448 414 399 387 386 385 386 381 317 316 239 253 243 246 209 254 242 233 222 222 210 189 207 231 232 202 233 237 243 217 182 229 230 199 192 184 135 176 141 145 115 110
242 338 359 399 418 445 418 382 381 363 367 384 361 371 369 268 260 250 255 240 260 250 241 239 226 228 215 204 223 217 229 237 213 233 249 227 220 270 258 171 193 173 135 142 177 143 127
222 272 367 376 399 417 414 389 362 363 361 376 377 380 296 333 327 262 257 244 235 260 251 237 242 152 160 187 185 224 234 219 207 242 236 238 236 242 259 264 271 273 192 216 197 197 123
230 147 265 370 371 398 398 403 377 359 347 353 376 373 371 305 259 262 242 241 250 244 254 253 245 244 232 225 218 220 215 216 239 238 179 191 236 246 258 260 261 256 254 254 148 282 152
225 212 241 363 365 362 406 382 392 363 362 355 356 394 363 367 274 252 246 254 231 241 243 238 246 246 242 248 240 232 243 220 214 227 221 246 202 237 239 241 248 260 260 257 183 215 206
200 253 216 231 360 352 367 438 398 417 386 370 347 337 340 348 353 263 263 207 251 253 247 221 240 255 249 249 250 249 242 227 230 197 235 236 254 250 252 261 280 269 273 286 295 303 263
162 186 266 210 260 353 355 362 377 381 432 231 311 321 328 328 324 308 256 254 245 223 201 233 223 243 213 216 258 261 262 256 257 253 250 256 261 265 269 276 280 291 292 292 295 302 334
184 174 209 188 206 235 356 373 353 372 390 336 311 313 329 318 320 313 263 259 255 239 238 235 233 236 247 236 246 269 271 264 268 271 274 272 268 278 276 273 283 287 305 355 360 350 343
183 192 188 230 196 218 260 361 374 357 331 321 336 317 342 320 323 308 300 263 254 250 246 226 243 247 238 268 245 241 250 260 270 279 280 273 266 260 272 291 371 401 383 360 379 386 364
207 165 212 232 146 184 193 248 365 391 335 324 321 325 344 351 319 327 313 326 319 308 258 265 248 232 254 252 256 271 252 246 255 279 260 274 285 355 375 362 378 361 360 355 364 387 359
169 204 185 194 227 226 186 219 240 356 347 342 331 342 325 326 343 310 326 184 331 277 295 228 249 255 258 246 235 249 252 266 275 292 391 371 366 356 350 347 349 350 330 333 329 140 154
183 172 206 168 214 172 191 172 210 233 353 375 374 320 330 335 335 331 337 323 314 311 310 285 289 277 275 277 271 275 303 353 335 339 294 335 331 332 324 319 292 311 302 249 262 147 154
175 165 196 203 207 175 185 221 193 169 211 297 366 317 338 310 322 359 354 360 357 343 358 340 280 315 313 364 338 328 318 304 313 325 332 323 263 300 302 304 295 292 297 286 289 223 288
170 195 180 197 199 175 155 146 148 146 198 205 232 394 381 361 352 333 286 372 341 377 340 328 367 330 321 310 308 301 300 302 306 292 320 296 254 289 289 282 287 279 160 267 177 133 191
176 195 201 162 194 180 170 168 91 234 156 191 149 186 188 145 143 150 152 374 384 375 177 155 164 214 172 304 283 178 179 237 258 287 193 190 167 267 237 268 144 138 280 281 292 291 188
178 193 180 164 159 181 182 180 115 141 141 135 146 148 142 140 139 137 134 140 257 182 148 148 148 185 148 150 229 153 286 208 225 278 226 205 155 155 156 155 155 158 147 132 138 150 137
139 168 185 179 196 199 142 140 136 136 163 131 171 194 177 221 208 211 238 226 241 167 231 151 142 176 191 117 122 175 137 248 286 241 231 129 225 261 227 259 173 136 152 193 139 269 240
176 162 186 186 173 194 209 125 139 127 136 141 157 127 285 266 133 161 153 158 178 158 212 159 159 159 145 147 186 256 262 260 251 257 258 255 168 173 158 287 286 277 288 266 272 172 158
165 185 177 178 191 189 147 145 131 144 130 129 134 154 142 150 289 126 216 211 194 173 183 166 206 154 157 217 166 164 189 243 215 199 168 222 165 241 249 256 218 288 285 188 256 284 176
172 161 184 165 174 178 192 172 140 142 173 124 137 187 131 125 141 141 283 180 224 201 198 205 169 168 142 211 166 166 137 163 232 182 210 236 235 147 238 198 244 244 202 283 214 215 272
161 163 175 177 169 161 175 188 195 165 155 150 127 131 135 130 131 168 134 135 155 167 215 216 150 207 180 206 189 142 188 194 180 211 221 195 184 168 164 161 173 220 226 217 165 250 269
151 156 175 145 165 185 148 171 179 192 137 191 151 134 131 132 135 131 138 133 131 131 274 247 227 223 206 198 143 196 195 143 187 154 204 181 152 184 123 172 167 159 208 169 209 200 163
172 182 173 182 151 168 177 173 172 187 193 195 168 191 197 137 135 204 177 138 141 134 127 140 229 137 237 160 215 149 207 205 159 202 204 186 196 209 195 207 204 183 178 177 170 157 169
149 145 172 160 163 178 181 166 173 193 178 187 172 188 169 168 188 133 122 133 172 137 134 163 128 204 211 225 155 136 141 172 157 150 145 195 199 195 198 197 211 218 212 213 196 182 192
170 181 162 168 157 142 177 157 164 173 181 179 177 185 194 189 192 179 202 125 201 133 219 205 140 133 133 206 273 262 248 231 224 233 230 222 227 213 208 209 205 196 199 201 195 206 201
148 161 165 178 174 166 173 177 180 179 159 171 177 195 187 198 188 200 188 197 175 215 130 181 171 126 126 134 129 132 151 127 192 231 129 201 149 235 232 232 235 242 238 213 206 201 174
135 175 148 175 185 173 171 180 165 155 180 185 175 175 177 187 188 187 191 198 164 162 122 178 193 192 118 230 238 168 140 219 133 128 126 135 187 209 214 220 230 238 237 240 236 242 241
174 168 163 182 173 176 159 179 161 173 161 176 169 174 178 176 183 181 193 192 199 187 175 197 190 201 172 195 170 218 195 208 232 207 256 254 241 235 231 210 211 229 223 232 237 239 233
171 154 176 156 186 178 183 166 160 169 163 188 161 190 165 169 188 178 184 185 187 190 164 205 160 206 181 134 228 198 230 190 197 308 290 270 256 245 246 245 233 221 210 212 213 219 237
Wind_Speed
114 101 81 53 53 20 3 6 15 16 15 20 26 57 78 75 71 64 69 68 93 98 94 96 96 89 73 83 79 78 76 82 84 81 87 80 98 98 90 83 80 63 79 59 66 30 25
112 115 102 82 61 35 14 13 13 14 9 18 29 33 47 66 66 67 73 70 82 99 99 97 84 88 83 77 82 82 79 74 85 80 75 82 88 73 82 70 85 78 63 66 75 60 42
99 124 103 91 72 56 24 19 16 13 27 13 19 29 75 68 69 69 71 69 61 92 98 88 89 47 48 66 68 80 77 78 80 75 79 81 83 83 80 77 77 84 85 100 86 83 40
106 52 123 93 81 61 47 26 18 23 23 18 11 38 32 56 55 64 58 59 74 70 83 91 83 79 85 85 82 82 78 73 76 78 65 69 77 78 77 79 78 78 75 75 57 84 57
102 94 117 97 89 84 50 38 19 15 21 18 17 14 25 15 62 56 58 69 59 63 65 66 74 78 75 80 83 84 82 76 69 74 67 78 68 75 72 73 75 82 79 80 62 66 64
87 108 98 112 95 93 82 41 32 18 19 26 51 45 31 36 29 64 66 56 62 66 63 43 61 71 72 73 78 79 83 75 76 58 77 75 84 85 83 86 85 86 88 90 89 91 77
60 74 118 93 121 95 84 75 55 54 33 45 35 42 43 40 44 46 63 62 59 45 27 45 37 52 34 39 75 79 83 81 82 83 79 81 80 80 80 78 79 82 82 84 89 90 85
68 68 83 75 89 110 86 63 64 49 56 52 39 35 41 38 42 37 62 62 67 47 44 39 35 42 56 39 50 70 74 69 71 76 81 75 73 83 72 67 74 73 73 69 66 65 67
73 72 77 95 77 102 117 76 62 56 60 50 41 31 38 38 34 38 39 60 49 47 50 31 40 45 31 62 40 32 37 44 53 69 75 68 61 56 60 70 43 28 31 42 34 29 32
104 57 103 106 49 73 73 111 66 52 56 47 44 38 38 32 27 27 29 30 39 46 42 65 32 16 37 28 33 50 38 41 44 53 47 53 60 27 6 12 4 6 13 19 24 21 10
56 95 70 78 116 105 65 98 102 59 57 38 42 29 31 33 30 19 20 30 36 42 50 13 34 36 35 25 25 32 36 41 47 48 14 16 13 12 10 5 13 13 10 26 18 37 34
67 57 95 55 102 53 75 57 89 99 56 37 22 48 33 24 18 14 11 16 20 27 28 35 36 39 43 44 39 39 34 15 5 16 12 13 16 18 17 23 3 24 19 8 1 32 34
63 50 80 87 90 53 66 90 67 52 81 75 39 39 39 38 28 15 12 7 9 9 8 11 24 12 11 27 24 25 17 6 14 25 23 20 16 24 25 28 22 20 21 10 14 9 16
53 82 62 85 82 57 41 39 41 40 70 76 82 33 30 29 28 30 29 29 29 26 29 28 33 37 36 32 27 25 24 25 27 26 25 30 15 25 26 18 18 16 25 11 18 34 17
67 83 84 37 77 59 53 43 22 97 38 57 39 60 54 41 39 39 36 32 27 30 35 31 31 30 28 32 29 20 18 20 19 27 10 11 7 19 19 16 21 25 16 16 25 28 19
63 81 63 58 43 56 58 63 24 29 29 27 32 34 33 32 33 31 29 25 41 29 26 24 24 26 20 18 24 15 31 17 19 23 19 13 11 13 15 17 18 20 24 29 31 29 35
19 53 70 61 76 74 21 22 20 21 43 21 49 48 34 69 59 58 69 60 55 28 48 19 15 19 20 4 1 10 2 34 37 17 21 17 15 22 8 12 16 29 28 16 35 21 20
57 46 66 68 52 74 79 12 17 13 18 19 25 15 82 70 19 26 23 24 25 23 48 23 22 20 12 12 17 53 55 55 51 55 52 49 2 1 14 22 27 25 20 20 19 20 28
49 64 54 55 69 68 18 21 9 15 10 10 13 24 18 26 69 17 55 54 41 32 31 13 36 17 17 42 8 17 14 47 26 20 5 35 3 39 45 48 23 31 25 6 23 18 22
48 37 60 45 51 55 71 41 10 14 45 2 8 49 8 5 15 14 58 24 48 38 40 42 18 22 11 39 15 15 5 10 42 6 25 40 39 3 39 18 43 42 11 13 4 7 29
43 43 49 49 44 32 49 62 68 27 22 9 2 4 3 2 4 31 8 6 13 16 37 40 11 36 24 33 24 6 20 25 7 28 29 15 10 5 7 10 7 28 33 28 14 39 39
31 38 47 16 45 55 14 42 49 62 7 55 12 7 6 7 5 3 7 3 3 2 42 36 35 33 32 29 4 24 23 6 18 6 20 10 6 12 15 11 9 12 16 6 16 13 16
44 58 46 55 27 41 48 41 42 55 65 60 23 50 61 11 9 57 26 11 12 6 6 7 25 5 28 10 28 7 22 20 11 17 14 13 13 14 12 15 12 10 7 7 11 19 15
31 23 42 36 35 47 45 39 43 59 42 58 33 46 21 31 45 14 12 12 30 14 14 14 10 38 19 18 15 11 16 18 17 18 18 14 15 15 15 14 14 15 14 16 11 10 9
42 49 39 39 37 13 44 32 30 37 46 41 39 52 58 48 47 33 60 17 55 14 56 50 15 18 19 46 28 26 26 23 22 23 23 21 20 19 18 18 17 18 19 17 14 16 12
38 36 41 51 40 39 46 46 45 42 27 37 39 63 52 64 46 57 41 49 16 65 18 14 16 17 17 20 22 23 21 16 22 23 18 22 25 23 23 22 20 18 16 21 21 21 19
16 52 37 49 59 41 42 52 39 30 44 47 41 41 36 49 51 45 45 52 21 26 24 38 37 43 17 62 50 20 28 25 25 22 21 24 25 26 25 25 25 25 23 21 18 17 15
58 49 49 59 45 47 39 52 35 48 31 38 36 39 45 37 45 42 52 45 52 40 25 47 37 51 38 50 26 57 30 46 27 26 26 23 26 26 25 29 25 23 25 26 26 24 22
57 54 57 44 66 55 57 41 39 41 39 60 36 58 33 36 58 42 48 48 41 41 21 57 28 50 32 26 62 28 52 24 30 28 31 27 24 29 29 25 28 25 27 28 26 25 26
Wind_Direction
16 20 19 15 17 20 94 148 203 217 211 176 191 217 220 214 222 222 222 226 223 226 229 230 231 235 232 236 235 238 239 240 241 244 244 240 245 245 244 242 242 234 242 234 236 222 215
19 23 25 24 22 35 91 112 102 122 145 168 173 193 199 222 217 220 220 222 222 223 227 229 232 231 235 241 235 239 239 244 241 246 252 249 247 260 253 239 246 242 233 234 244 237 242
24 25 23 27 26 34 69 88 86 82 82 84 174 177 221 209 207 215 217 219 220 222 227 230 229 224 226 234 233 242 239 242 242 253 248 250 248 252 258 260 260 260 246 250 249 250 245
24 39 27 28 33 31 40 57 96 103 120 131 107 176 186 217 210 211 211 214 223 225 225 230 231 231 233 238 239 242 245 250 246 249 239 244 255 259 262 263 261 261 264 264 242 264 247
25 30 28 27 32 38 36 44 74 93 130 118 97 123 160 152 206 207 210 211 219 222 221 224 231 236 238 239 239 245 245 248 249 255 252 261 250 259 261 260 264 269 266 262 254 265 255
26 28 34 31 29 34 39 46 53 79 142 99 94 86 92 103 119 204 208 206 214 221 225 220 229 235 237 241 241 245 244 251 254 246 258 260 262 262 268 270 273 270 271 273 276 276 267
27 31 29 40 34 33 38 41 60 72 93 63 105 102 99 111 127 173 206 206 212 210 213 224 225 239 236 245 242 245 246 249 252 255 259 263 267 270 272 275 276 276 274 274 272 273 275
25 32 35 41 41 36 34 51 45 58 100 98 92 104 108 117 129 146 200 205 208 217 222 226 231 245 244 259 264 247 247 256 260 261 264 269 271 272 269 270 273 270 269 273 273 272 270
31 31 34 37 43 37 40 38 58 67 63 63 77 76 86 120 129 157 182 209 217 222 227 223 240 241 247 246 256 258 268 273 273 268 268 268 265 264 269 274 278 285 284 277 284 293 286
30 30 32 34 42 39 50 40 42 71 55 57 54 57 76 94 128 143 174 172 192 204 218 229 225 226 253 261 266 267 262 256 259 268 263 266 270 277 286 270 339 292 313 296 306 317 308
30 34 36 33 35 36 51 41 42 45 49 64 50 83 63 72 92 126 151 90 189 221 214 190 249 246 248 239 242 254 255 264 269 273 85 99 97 101 95 95 37 21 43 72 74 241 243
34 32 34 34 32 43 41 51 45 42 50 62 82 57 65 69 66 80 112 167 192 207 216 230 237 244 252 257 257 261 266 92 128 127 250 108 98 86 91 95 129 89 81 115 310 236 237
29 36 31 36 41 38 38 42 52 61 48 48 54 59 58 63 67 71 70 107 126 157 171 210 222 211 201 100 104 100 115 142 109 71 70 86 112 94 102 98 102 94 98 62 43 270 55
33 29 34 31 35 45 50 57 61 58 48 52 50 67 65 63 66 72 74 85 93 102 108 115 107 116 113 112 111 109 101 80 78 74 81 97 103 85 95 84 94 65 229 34 238 243 237
26 25 27 36 32 40 42 36 15 37 57 56 73 56 64 77 72 64 66 85 89 91 95 93 93 100 86 103 97 95 94 143 86 67 108 121 168 88 79 94 239 239 67 49 75 77 244
20 24 24 28 38 33 38 39 62 71 70 72 70 76 83 87 88 88 80 75 78 90 101 100 99 93 101 108 89 116 75 93 78 75 89 82 205 215 224 229 232 237 245 252 251 249 254
31 23 23 26 25 29 50 43 63 72 50 78 52 57 60 44 55 59 56 59 66 72 73 76 91 89 85 31 20 59 114 75 69 77 75 243 54 53 36 49 260 256 256 266 258 42 59
11 18 19 22 24 22 25 54 44 61 65 70 40 85 40 39 77 56 72 63 73 66 57 60 60 59 98 86 108 75 77 79 77 75 73 72 46 77 235 58 61 63 57 63 48 246 246
5 5 15 17 19 23 30 39 52 32 53 65 69 46 58 60 41 18 37 42 55 53 59 48 62 63 47 67 72 79 65 72 75 59 6 66 336 62 65 61 54 53 55 229 68 59 247
2 5 3 12 15 19 17 21 30 32 36 36 50 34 74 100 50 56 38 38 35 45 45 43 51 63 107 54 71 70 191 54 59 21 59 59 58 218 59 46 60 60 50 40 270 63 73
358 359 358 6 5 14 15 14 16 17 25 357 337 4 18 70 51 33 41 57 51 30 30 29 59 37 43 40 45 80 52 41 25 55 63 51 60 259 276 305 308 67 61 57 255 57 62
353 354 353 354 356 2 344 11 14 15 310 22 330 303 301 314 334 318 357 354 341 350 32 30 26 21 24 28 3 34 36 26 36 17 36 29 247 27 292 344 263 291 70 266 57 45 280
338 336 344 348 350 352 356 3 3 5 10 16 6 20 26 297 289 25 28 320 329 313 274 343 25 346 21 6 10 0 11 9 359 16 20 5 11 27 19 22 22 1 337 307 265 283 284
331 340 336 339 346 345 349 348 356 1 8 6 3 14 2 1 23 280 283 292 9 309 309 16 292 24 9 13 343 339 336 344 337 331 327 347 345 344 346 348 7 9 6 1 349 318 313
320 322 323 325 331 323 337 339 341 355 358 4 3 358 6 15 14 7 14 284 18 286 19 10 288 308 315 24 9 5 357 352 353 355 350 343 344 334 336 338 335 328 332 334 322 336 325
313 312 313 319 321 322 327 334 341 345 335 350 354 353 359 358 7 10 9 14 8 16 305 24 7 301 308 321 313 310 319 319 330 341 321 331 309 340 338 339 339 348 340 323 322 322 314
293 305 307 311 316 317 322 327 325 325 338 342 341 346 349 357 357 358 6 9 326 342 287 356 358 358 302 356 4 355 286 330 292 303 310 300 311 321 326 330 337 336 337 338 334 340 338
300 301 301 306 306 311 306 317 317 323 318 332 328 338 342 342 351 352 353 1 3 5 338 7 355 2 335 355 343 353 29 356 309 310 339 333 325 320 319 312 315 329 326 331 330 328 323
292 295 301 302 304 305 308 300 303 312 312 322 317 330 321 327 340 340 344 345 352 355 315 1 293 6 340 310 358 354 348 25 14 305 307 308 315 317 322 326 321 305 300 304 306 312 320